METEOR 2-2 DEB

Satellite information

Favourite Embed

Satellite Type and Status

DEBRISIN ORBIT

Key statistics

Satellite METEOR 2-2 DEB at a glance.

Uptime

17772

Days in orbit

Revolutions

≈ 14.4

Per day

Orbit

LEO

Low Earth Orbit

Inclination

81.2

Latest

Satellite identification and parameters

Extended collection of information and parameters for METEOR 2-2 DEB.

Object identification

Identified? True

Debris? True

Object name: METEOR 2-2 DEB

International designator: 1977-002F

Object number (NORAD): 35423

Object ID (CCSDS): 35423

Country: COMMONWEALTH OF INDEPENDENT STATES (CIS)

Current information (Y/N): Y

RCS size: SMALL

Orbital parameters

Period: 100.078 minutes

Inclination: 81.2423 deg

SMA: 7140.333 km

Apoapsis: 773.168 km

Periapsis: 751.228 km

RAAN: 259.4906 deg

Eccentricy: 0.00153639

Argument of periapsis: 111.1323 deg

Mean anomaly: 249.1508 deg

Mean motion: 14.3888162 rev/day

Mean motion (dot): 0.00002763 rev/day2

B* drag term: 0.00089221092 1/REarth

Two-line elements (TLE)

Creation date: Aug. 31, 2025, 5:37 p.m.

Reference frame: TEME

Reference center: EARTH

Epoch: Aug. 31, 2025, 9:07 a.m. UTC

TLE line 0: 0 METEOR 2-2 DEB

TLE line 1: 1 35423U 77002F 25243.38019572 .00002763 00000-0 89221-3 0 9997

TLE line 2: 2 35423 81.2423 259.4906 0015364 111.1323 249.1508 14.38881620628326

Live tracking on map

Real-time ground track for satellite METEOR 2-2 DEB.

In-orbit conjunctions

A list of the most updated potential collisions computed for object METEOR 2-2 DEB.

Target Orbit TCA Probability of collision Miss distance Type
CZ-6A DEB LEO 2025-02-17 17:00:30 0.0001369618 244.0 (m) DEBRIS

Associated space launch

Second generation soviet meteorological satellite

METEOR 2-2 DEB was lifted into orbit during the mission ‘Vostok 8A92M | Meteor-2 2’, on board a Vostok 8A92M space rocket.

The launch took place on Jan. 6, 1977, 11:17 p.m. from 43/3 (43L).

For more information about the launch, click the button.

Launch to space Vostok 8A92M | Meteor-2 2
Vostok 8A92M | Meteor-2 2

Agency: N/A

Status: Launch Successful

Launch date: Jan. 6, 1977, 11:17 p.m. UTC

Rocket: Vostok 8A92M

Launch pad: 43/3 (43L)

Location: Plesetsk Cosmodrome, Russian Federation

...

Latest news about this satellite

There are no fresh news available about this satellite. Check back as we update our databases every day.


Newsletter sign-up

Weekly statistics, charts and insights to help you stay on top of the space industry.